Regional Weather Roundup
Issued by NWS Upton, NY

Current Version | Previous Version | Text Only | Print | Product List | Glossary On
Versions: 1 2 3 4 5 6 7 8 9 10 11 12 13 14 15 16 17 18 19 20 21 22 23 24 25 26 27
000 ASUS41 KOKX 210209 RWROKX REGIONAL WEATHER ROUNDUP NATIONAL WEATHER SERVICE NEW YORK NY 1000 PM EDT THU JUL 20 2017 NOTE: "FAIR" INDICATES FEW OR NO CLOUDS BELOW 12,000 FEET WITH NO SIGNIFICANT WEATHER AND/OR OBSTRUCTIONS TO VISIBILITY. NYZ071-072-176-178-NJZ106-104-210300- NEW YORK CITY METRO AREA CITY SKY/WX TMP DP RH WIND PRES REMARKS Central Park CLOUDY 78 69 73 W3 29.92S Bronx Bot Gard N/A 79 64 61 W13 29.91R LaGuardia APRT CLOUDY 81 70 69 W10 29.88R Kennedy INTL CLOUDY 83 72 69 W15 29.89R Breezy Point N/A 75 N/A N/A W8 N/A Newark/Liberty CLOUDY 78 69 73 W10 29.89S Teterboro CLOUDY 77 69 76 W5 29.89R $$ NYZ177-179-078>081-210300- LONG ISLAND NEW YORK CITY SKY/WX TMP DP RH WIND PRES REMARKS Jones Beach N/A 81 N/A N/A W14 N/A Matinecock PT N/A 79 N/A N/A W16 N/A Farmingdale CLOUDY 83 73 72 W7 29.86S MacArthur/ISP MOCLDY 80 77 90 SW7 29.85S Shirley CLOUDY 81 78 91 S7 29.85F Mt Sinai Harb N/A 82 N/A N/A SW5 N/A Westhampton MOCLDY 78 74 87 SW10 29.86F East Hampton FAIR 77 74 90 SW10G17 29.81F Montauk N/A 77 75 93 SW8 29.84F $$ NYZ052-065-067-210300- HUDSON VALLEY CITY SKY/WX TMP DP RH WIND PRES REMARKS White Plains NOT AVBL Larchmont Harb N/A 79 N/A N/A W13G18 N/A Croton O-T Hud N/A 79 N/A N/A SW5 N/A Newburgh PTCLDY 70 70 100 W9 29.91R Montgomery PTCLDY 70 69 97 CALM 29.90S FOG Poughkeepsie PTCLDY 71 68 90 CALM 29.88R Albany PTCLDY 72 63 73 CALM 29.89R $$ NJZ001-105-106-008-010-013-015-019>022-104-210300- NEW JERSEY CITY SKY/WX TMP DP RH WIND PRES REMARKS Newark/Liberty CLOUDY 78 69 73 W10 29.89S Teterboro CLOUDY 77 69 76 W5 29.89R Caldwell CLOUDY 73 70 90 S5 29.91S Somerville CLOUDY 73 72 96 CALM 29.89F Linden FAIR 75 71 86 NW6 29.90S Perth Amboy N/A 75 N/A N/A W7 N/A Sussex PTCLDY 71 70 96 CALM 29.91F Andover N/A 70 68 93 CALM 29.93F Trenton CLOUDY 73 71 93 CALM 29.91F Millville PTCLDY 81 77 88 S3 29.92R Atlantic City PTCLDY 83 76 79 S5 29.92R HX 91 Wrightstown LGT RAIN 77 70 80 N7 29.89F Toms River CLOUDY 79 68 69 CALM 29.92F Belmar CLOUDY 74 72 93 W6 29.91F $$ PAZ047>061-062-071-210300- EASTERN PENNSYLVANIA CITY SKY/WX TMP DP RH WIND PRES REMARKS Philadelphia MOCLDY 86 66 51 N13 29.91S Allentown PTCLDY 72 69 90 CALM 29.92F Scranton CLOUDY 71 70 96 CALM 29.94S $$ CTZ002-004>006-009-010-012-RIZ004-006-007-MAZ004-011-015-210300- SOUTHERN NEW ENGLAND IN CT CITY SKY/WX TMP DP RH WIND PRES REMARKS Bradley INTL CLOUDY 73 70 90 N5 29.86R Hartford PTCLDY 80 69 69 CALM 29.85R Danbury CLOUDY 72 67 84 W5 29.89R Wtrbury/Oxford PTCLDY 75 63 64 NW6 29.88S Bridgeport LGT RAIN 83 73 72 W8 29.84R Meriden CLOUDY 79 68 69 CALM 29.85R New Haven CLOUDY 83 73 72 NW7 29.85R Chester FAIR 79 75 89 SW3 29.87R Groton CLOUDY 78 72 81 CALM 29.84S Wilimantic CLOUDY 75 73 93 N5 29.86R IN RI CITY SKY/WX TMP DP RH WIND PRES REMARKS Providence CLOUDY 81 73 76 SW8 29.84S Block Island CLOUDY 76 74 93 SW14 29.85F Westerly CLOUDY 77 72 84 CALM 29.85F IN MA CITY SKY/WX TMP DP RH WIND PRES REMARKS Boston CLOUDY 78 68 71 NE5 29.84S Worcester MOCLDY 75 62 64 NW7 29.90R Westfield CLOUDY 72 69 90 CALM 29.86R Provincetown CLOUDY 73 71 93 SW12 29.83F Nantucket FOG 72 72 100 SW6 29.85F VSB 1/4 $$ ANZ330-335-338-340-345-350-353-355-210300- COASTAL MARINE OBSERVATIONS STATION/POSITION TIME SKY/WX TEMP WIND PRES VSBY WAVE AIR SEA DIR/SP/G HT/PER (UTC) (F) (DEG/KT/KT) (MB) (MI) (FT/S) NY HARB ENTRANCE 0050 79 76 240/ 6/ 6 1011.4 3/ 5 20 S FIRE ISLAND 0150 78 76 230/ 14/ 16 1011.1 4/ 5 GREAT SOUTH BAY 0130 79 83 230/ 10/ 12 N/A 23 SSW MONTAUK P 0150 78 76 1010.3 3/ 5 15 E BARNEGAT LI 0130 78 N/A 4/ 5 HUDSON CANYON 0050 80 79 220/ 16/ 19 1011.7 4/ 4 KINGS POINT 0130 78 72 340/ 10/ 12 1011.8 EXECUTION ROCKS 0145 79 250/ 12/ 17 N/A CENTRAL LI SOUND NOT AVBL EASTERN LI SOUND NOT AVBL ROBBINS REEF 0130 280/ 8/ 10 1012.6 $$ >>>>>>>>>>>>>>>>>>>>>>>>>>>> KEY <<<<<<<<<<<<<<<<<<<<<<<<<<< > < > SKY/WX - Sky Condition/Present Weather < > TMP - Temperature in Fahrenheit < > DP - Dew Point in Fahrenheit < > RH - Relative Humidity in Percent < > WIND - Direction (from) and Speed in MPH < > PRES - Mean Sea Level Pressure (inches of Hg) < > WCI - Wind Chill Index < > VSB - VISIBILITY IN MILES < > HX - HEAT INDEX < > TC - TEMPERATURE IN CELSIUS < > VRB - VARIABLE WIND DIRECTION < > < >>>>>>>>>>>>>>>>>>>>>>>>>>>> KEY <<<<<<<<<<<<<<<<<<<<<<<<<<<

USA.gov is the U.S. government's official web portal to all federal, state and local government web resources and services.